{"data":{"norad_id":59031,"epoch":"2026-09-20T07:04:41.933856Z","epoch_age_seconds":173371,"freshness":"STALE","line1":"1 59031U 24038J   26263.29492979  .00000160  00000+0  15336-4 0  9993","line2":"2 59031  43.0066   7.7209 0001901 283.1217  76.9423 15.27580499144414","mean_motion":15.27580499,"eccentricity":0.0001901,"inclination_deg":43.0066,"raan_deg":7.7209,"arg_perigee_deg":283.1217,"mean_anomaly_deg":76.9423,"bstar":1.5336e-5,"rev_number":14441,"period_min":94.266717920441,"perigee_km":481.74329066173,"apogee_km":484.35191304736,"semimajor_km":6861.1846018545,"source":"CELESTRAK","updated_at":"2026-09-21T09:00:34.029484Z"}}